When you browse on this site, cookies collect data to enhance your experience and personalize the content and advertising you see.
Visit our Privacy Policy to learn more. By continuing to use the site, you agree to this use of cookies and data.
  • In France
  • List of Countries
  • For 7 days
  • Water Temperature
  • Weather Map
  • Weather Widgets
  • user-avatar
    Login

    Hourly Weather Kurytyba

    Today, 26 August, Monday

    Time Temperature Precipitation Wind Pressure Humidity
    00:00 +9°C° 0 mm 1 mps 687 mmHg 93%
    01:00 +8°C° 0 mm 2 mps 687 mmHg 93%
    02:00 +8°C° 0 mm 2 mps 686 mmHg 94%
    03:00 +8°C° 0 mm 2 mps 686 mmHg 94%
    04:00 +9°C° 0 mm 2 mps 686 mmHg 93%
    05:00 +9°C° 0 mm 2 mps 686 mmHg 92%
    06:00 +9°C° 0 mm 2 mps 686 mmHg 91%
    07:00 +10°C° 0 mm 2 mps 687 mmHg 86%
    08:00 +12°C° 0 mm 2 mps 687 mmHg 81%
    09:00 +13°C° 0 mm 1 mps 688 mmHg 76%
    10:00 +16°C° 0 mm 2 mps 688 mmHg 68%
    11:00 +18°C° 0 mm 2 mps 688 mmHg 60%
    12:00 +20°C° 0 mm 2 mps 688 mmHg 53%
    13:00 +21°C° 0 mm 2 mps 687 mmHg 52%
    14:00 +21°C° 0 mm 2 mps 687 mmHg 52%
    15:00 +23°C° 0 mm 2 mps 686 mmHg 52%
    16:00 +20°C° 0 mm 2 mps 686 mmHg 63%
    17:00 +18°C° 0 mm 2 mps 686 mmHg 73%
    18:00 +16°C° 0 mm 2 mps 685 mmHg 84%
    19:00 +15°C° 0 mm 2 mps 686 mmHg 87%
    20:00 +14°C° 0 mm 2 mps 686 mmHg 90%
    21:00 +14°C° 0 mm 2 mps 687 mmHg 93%
    22:00 +13°C° 0 mm 1 mps 687 mmHg 93%
    23:00 +13°C° 0 mm 1 mps 687 mmHg 94%

    Tomorrow, 27 August, Tuesday

    Time Temperature Precipitation Wind Pressure Humidity
    00:00 +13°C° 0 mm 1 mps 687 mmHg 94%
    01:00 +13°C° 0 mm 1 mps 687 mmHg 94%
    02:00 +13°C° 0 mm 1 mps 686 mmHg 94%
    03:00 +13°C° 0 mm 1 mps 686 mmHg 94%
    04:00 +13°C° 0 mm 1 mps 686 mmHg 94%
    05:00 +13°C° 0 mm 1 mps 686 mmHg 94%
    06:00 +13°C° 0 mm 1 mps 686 mmHg 94%
    07:00 +14°C° 0 mm 1 mps 687 mmHg 89%
    08:00 +15°C° 0 mm 1 mps 687 mmHg 83%
    09:00 +16°C° 0 mm 1 mps 688 mmHg 78%
    10:00 +19°C° 0 mm 1 mps 688 mmHg 68%
    11:00 +22°C° 0 mm 1 mps 688 mmHg 58%
    12:00 +25°C° 0 mm 1 mps 689 mmHg 48%
    13:00 +25°C° 0 mm 1 mps 688 mmHg 46%
    14:00 +25°C° 0 mm 1 mps 688 mmHg 45%
    15:00 +26°C° 0 mm 2 mps 687 mmHg 43%
    16:00 +23°C° 0 mm 2 mps 687 mmHg 55%
    17:00 +20°C° 0 mm 2 mps 687 mmHg 67%
    18:00 +18°C° 0 mm 2 mps 686 mmHg 79%
    19:00 +17°C° 0 mm 2 mps 686 mmHg 83%
    20:00 +16°C° 0 mm 2 mps 687 mmHg 87%
    21:00 +15°C° 0 mm 2 mps 687 mmHg 91%
    22:00 +15°C° 0 mm 2 mps 687 mmHg 91%
    23:00 +14°C° 0 mm 2 mps 687 mmHg 91%

    Day after tomorrow, 28 August, Wednesday

    Time Temperature Precipitation Wind Pressure Humidity
    00:00 +14°C° 0 mm 2 mps 687 mmHg 91%
    01:00 +14°C° 0 mm 2 mps 686 mmHg 90%
    02:00 +14°C° 0 mm 2 mps 686 mmHg 89%
    03:00 +14°C° 0 mm 2 mps 686 mmHg 88%
    04:00 +13°C° 0 mm 1 mps 685 mmHg 88%
    05:00 +13°C° 0 mm 1 mps 685 mmHg 88%
    06:00 +13°C° 0 mm 1 mps 685 mmHg 89%
    07:00 +14°C° 0 mm 1 mps 686 mmHg 84%
    08:00 +15°C° 0 mm 1 mps 686 mmHg 80%
    09:00 +15°C° 0 mm 1 mps 687 mmHg 76%
    10:00 +17°C° 0 mm 2 mps 687 mmHg 67%
    11:00 +19°C° 0 mm 2 mps 687 mmHg 59%
    12:00 +21°C° 0 mm 2 mps 687 mmHg 51%
    13:00 +21°C° 0 mm 2 mps 687 mmHg 51%
    14:00 +23°C° 0 mm 2 mps 686 mmHg 50%
    15:00 +23°C° 0 mm 2 mps 685 mmHg 50%
    16:00 +20°C° 0 mm 2 mps 685 mmHg 60%
    17:00 +18°C° 0 mm 2 mps 685 mmHg 70%
    18:00 +16°C° 0 mm 2 mps 684 mmHg 80%
    19:00 +15°C° 0 mm 2 mps 684 mmHg 84%
    20:00 +14°C° 0 mm 2 mps 685 mmHg 88%
    21:00 +14°C° 0 mm 2 mps 685 mmHg 92%
    22:00 +13°C° 0 mm 2 mps 685 mmHg 92%
    23:00 +13°C° 0 mm 1 mps 685 mmHg 92%

    29 August, Thursday

    Time Temperature Precipitation Wind Pressure Humidity
    00:00 +13°C° 0 mm 1 mps 685 mmHg 93%
    01:00 +12°C° 0 mm 1 mps 684 mmHg 94%
    02:00 +12°C° 0 mm 1 mps 684 mmHg 94%
    03:00 +11°C° 0 mm 1 mps 683 mmHg 95%
    04:00 +11°C° 0 mm 1 mps 683 mmHg 95%
    05:00 +10°C° 0 mm 0 mps 683 mmHg 95%
    06:00 +9°C° 0 mm 0 mps 683 mmHg 95%
    07:00 +12°C° 0 mm 0 mps 683 mmHg 83%
    08:00 +15°C° 0 mm 1 mps 684 mmHg 72%
    09:00 +19°C° 0 mm 1 mps 685 mmHg 61%
    10:00 +21°C° 0 mm 1 mps 685 mmHg 52%
    11:00 +24°C° 0 mm 1 mps 685 mmHg 44%
    12:00 +26°C° 0 mm 2 mps 685 mmHg 35%
    13:00 +27°C° 0 mm 1 mps 684 mmHg 33%
    14:00 +27°C° 0 mm 1 mps 684 mmHg 31%
    15:00 +28°C° 0 mm 1 mps 683 mmHg 29%
    16:00 +25°C° 0 mm 1 mps 683 mmHg 40%
    17:00 +23°C° 0 mm 1 mps 683 mmHg 52%
    18:00 +20°C° 0 mm 1 mps 682 mmHg 63%
    19:00 +19°C° 0 mm 1 mps 682 mmHg 68%
    20:00 +18°C° 0 mm 1 mps 683 mmHg 73%
    21:00 +16°C° 0 mm 1 mps 683 mmHg 78%
    22:00 +16°C° 0 mm 1 mps 683 mmHg 77%
    23:00 +16°C° 0 mm 1 mps 683 mmHg 75%

    30 August, Friday

    Time Temperature Precipitation Wind Pressure Humidity
    00:00 +15°C° 0 mm 1 mps 682 mmHg 74%
    01:00 +15°C° 0 mm 1 mps 682 mmHg 74%
    02:00 +15°C° 0 mm 1 mps 682 mmHg 74%
    03:00 +15°C° 0 mm 1 mps 682 mmHg 74%
    04:00 +14°C° 0 mm 1 mps 682 mmHg 73%
    05:00 +14°C° 0 mm 1 mps 682 mmHg 72%
    06:00 +14°C° 0 mm 1 mps 682 mmHg 71%
    07:00 +16°C° 0 mm 1 mps 682 mmHg 63%
    08:00 +20°C° 0 mm 1 mps 683 mmHg 54%
    09:00 +22°C° 0 mm 1 mps 684 mmHg 45%
    10:00 +24°C° 0 mm 1 mps 684 mmHg 39%
    11:00 +26°C° 0 mm 1 mps 683 mmHg 33%
    12:00 +28°C° 0 mm 2 mps 683 mmHg 27%
    13:00 +28°C° 0 mm 2 mps 683 mmHg 26%
    14:00 +29°C° 0 mm 1 mps 682 mmHg 24%
    15:00 +29°C° 0 mm 1 mps 682 mmHg 23%
    16:00 +27°C° 0 mm 1 mps 681 mmHg 32%
    17:00 +24°C° 0 mm 1 mps 681 mmHg 42%
    18:00 +22°C° 0 mm 1 mps 680 mmHg 51%
    19:00 +21°C° 0 mm 1 mps 680 mmHg 54%
    20:00 +20°C° 0 mm 1 mps 680 mmHg 57%
    21:00 +19°C° 0 mm 1 mps 680 mmHg 60%
    22:00 +19°C° 0 mm 1 mps 680 mmHg 59%
    23:00 +18°C° 0 mm 1 mps 680 mmHg 59%

    31 August, Saturday

    Time Temperature Precipitation Wind Pressure Humidity
    00:00 +18°C° 0 mm 1 mps 680 mmHg 59%
    01:00 +18°C° 0 mm 1 mps 680 mmHg 60%
    02:00 +16°C° 0 mm 1 mps 680 mmHg 61%
    03:00 +16°C° 0 mm 1 mps 679 mmHg 62%
    04:00 +16°C° 0 mm 1 mps 679 mmHg 63%
    05:00 +16°C° 0 mm 1 mps 679 mmHg 63%
    06:00 +15°C° 0 mm 1 mps 679 mmHg 63%
    07:00 +19°C° 0 mm 1 mps 680 mmHg 56%
    08:00 +21°C° 0 mm 1 mps 681 mmHg 49%
    09:00 +24°C° 0 mm 2 mps 681 mmHg 42%
    10:00 +26°C° 0 mm 2 mps 681 mmHg 36%
    11:00 +28°C° 0 mm 2 mps 681 mmHg 31%
    12:00 +31°C° 0 mm 3 mps 681 mmHg 25%
    13:00 +31°C° 0 mm 3 mps 681 mmHg 24%
    14:00 +33°C° 0 mm 3 mps 680 mmHg 23%
    15:00 +33°C° 0 mm 3 mps 680 mmHg 22%
    16:00 +30°C° 0 mm 2 mps 680 mmHg 28%
    17:00 +28°C° 0 mm 2 mps 679 mmHg 34%
    18:00 +26°C° 0 mm 1 mps 679 mmHg 40%
    19:00 +25°C° 0 mm 1 mps 680 mmHg 42%
    20:00 +24°C° 0 mm 1 mps 680 mmHg 44%
    21:00 +23°C° 0 mm 1 mps 681 mmHg 46%
    22:00 +21°C° 0 mm 1 mps 681 mmHg 57%
    23:00 +20°C° 0 mm 1 mps 681 mmHg 67%
    Show more